Location: Newark
(50.6672°N, 3.2681°E)
Time: 23:52:02
(UTC+00:00)

ISS - Visible Passes

Search period start: 25 September 2020 00:00
Search period end: 05 October 2020 00:00
Orbit: 419 x 420 km, 51.6° (Epoch: 26 September)

Date Brightness Start Highest point End Pass type
(mag) Time Alt. Az. Time Alt. Az. Time Alt. Az.
25 Sep -3.7 18:56:57 10° W 19:00:20 76° N 19:02:09 25° ENE visible
25 Sep -1.2 20:33:51 10° WNW 20:35:06 21° WNW 20:35:06 21° WNW visible
26 Sep -3.7 18:09:32 10° W 18:12:55 84° NNW 18:16:18 10° ENE visible
26 Sep -3.5 19:46:27 10° W 19:49:28 67° WNW 19:49:28 67° WNW visible
27 Sep -3.7 18:59:02 10° W 19:02:25 74° N 19:03:50 32° E visible
27 Sep -0.9 20:35:54 10° WNW 20:36:47 17° W 20:36:47 17° W visible
28 Sep -3.6 18:11:36 10° W 18:14:59 72° N 18:18:11 11° E visible
28 Sep -3.0 19:48:28 10° WNW 19:51:09 50° W 19:51:09 50° W visible
29 Sep -3.8 19:01:02 10° WNW 19:04:26 87° SSW 19:05:30 41° ESE visible
29 Sep -0.6 20:38:04 10° W 20:38:28 12° W 20:38:28 12° W visible
30 Sep -3.7 18:13:36 10° W 18:17:00 81° N 18:19:53 14° E visible
30 Sep -2.2 19:50:31 10° W 19:52:51 32° WSW 19:52:51 32° WSW visible
01 Oct -3.3 19:03:00 10° WNW 19:06:19 53° SSW 19:07:15 38° SSE visible
02 Oct -3.6 18:15:32 10° WNW 18:18:55 70° SSW 18:21:42 14° ESE visible
02 Oct -1.4 19:52:49 10° W 19:54:40 18° SW 19:54:40 18° SW visible
03 Oct -2.1 19:05:06 10° W 19:08:01 27° SSW 19:09:10 22° S visible
04 Oct -2.6 18:17:29 10° W 18:20:40 38° SSW 18:23:45 10° SE visible
